This demonstration page uses our WeatherBlox Daily Observations layout. Learn more.

Hourly Observations for January 9, 2019

Temp ( °F °C ) Dew Point ( °F °C ) Humidity (%) Winds ( mph kmh ) Pressure ( in mb ) Visibility ( mi km ) Precip ( " mm )
12:15 am 00:15 Partly Cloudy 52 11 37 3 58 58 WNW 24 39 29.74 1007 10 16.09344 0 0
12:35 am 00:35 Partly Cloudy 50 10 36 2 58 58 WNW 25 41 29.74 1007 10 16.09344 0 0
12:55 am 00:55 Clear 48 9 36 2 62 62 NW 28 44 29.74 1007 10 16.09344 0 0
1:15 am 01:15 Clear 46 8 37 3 71 71 NW 20 31 29.77 1008 10 16.09344 0 0
1:35 am 01:35 Clear 46 8 36 2 66 66 WNW 15 24 29.77 1008 10 16.09344 0 0
1:55 am 01:55 Clear 46 8 34 1 62 62 WNW 15 24 29.77 1008 10 16.09344 0 0
2:15 am 02:15 Clear 46 8 32 0 57 57 NW 13 20 29.77 1008 10 16.09344 0 0
2:35 am 02:35 Mostly Cloudy 46 8 32 0 57 57 NW 5 7 29.8 1009 10 16.09344 0 0
2:55 am 02:55 Mostly Cloudy 45 7 32 0 61 61 WNW 10 17 29.83 1010 10 16.09344 0 0
3:15 am 03:15 Cloudy 46 8 32 0 57 57 W 9 15 29.8 1009 10 16.09344 0 0
3:35 am 03:35 Mostly Cloudy 45 7 32 0 61 61 WNW 12 19 29.83 1010 10 16.09344 0 0
3:55 am 03:55 Partly Cloudy 46 8 28 -2 50 50 WNW 23 37 29.77 1008 10 16.09344 0 0
4:15 am 04:15 Clear 45 7 28 -2 53 53 WNW 20 31 29.8 1009 10 16.09344 0 0
4:35 am 04:35 Mostly Cloudy 45 7 28 -2 53 53 WNW 15 24 29.83 1010 10 16.09344 0 0
4:55 am 04:55 Mostly Cloudy 45 7 27 -3 49 49 NW 29 46 29.83 1010 10 16.09344 0 0
5:15 am 05:15 Mostly Cloudy 43 6 27 -3 53 53 WNW 15 24 29.83 1010 10 16.09344 0 0
5:35 am 05:35 Cloudy 45 7 27 -3 49 49 WNW 14 22 29.83 1010 10 16.09344 0 0
5:55 am 05:55 Cloudy 45 7 28 -2 53 53 WNW 13 20 29.83 1010 10 16.09344 0 0
6:15 am 06:15 Cloudy 45 7 28 -2 53 53 WNW 21 33 29.83 1010 10 16.09344 0 0
6:35 am 06:35 Cloudy 45 7 28 -2 53 53 WNW 14 22 29.83 1010 10 16.09344 0 0
6:55 am 06:55 Cloudy 45 7 28 -2 53 53 NW 9 15 29.83 1010 10 16.09344 0 0
7:15 am 07:15 Cloudy 45 7 28 -2 53 53 WNW 12 19 29.83 1010 10 16.09344 0 0
7:35 am 07:35 Cloudy 45 7 30 -1 57 57 NW 14 22 29.83 1010 10 16.09344 0 0
7:55 am 07:55 Cloudy 45 7 30 -1 57 57 NW 10 17 29.83 1010 10 16.09344 0 0
8:15 am 08:15 Cloudy 45 7 30 -1 57 57 WNW 12 19 29.83 1010 10 16.09344 0 0
8:35 am 08:35 Cloudy 45 7 30 -1 57 57 NW 17 28 29.83 1010 10 16.09344 0 0
8:55 am 08:55 Cloudy 45 7 30 -1 57 57 WNW 14 22 29.83 1010 10 16.09344 0 0
9:15 am 09:15 Cloudy 45 7 30 -1 57 57 NW 14 22 29.83 1010 10 16.09344 0 0
9:35 am 09:35 Cloudy 45 7 30 -1 57 57 NW 15 24 29.83 1010 10 16.09344 0 0
9:55 am 09:55 Cloudy 46 8 32 0 57 57 WNW 17 28 29.8 1009 10 16.09344 0 0
10:15 am 10:15 Cloudy 46 8 32 0 57 57 WNW 16 26 29.8 1009 10 16.09344 0 0
10:35 am 10:35 Cloudy 46 8 32 0 57 57 NW 13 20 29.8 1009 10 16.09344 0 0
10:55 am 10:55 Cloudy 45 7 32 0 61 61 NW 18 30 29.83 1010 10 16.09344 0 0
11:15 am 11:15 Cloudy 45 7 32 0 61 61 NW 21 33 29.83 1010 10 16.09344 0 0
11:35 am 11:35 Cloudy 43 6 32 0 66 66 WNW 21 33 29.83 1010 10 16.09344 0 0
11:55 am 11:55 Cloudy 43 6 32 0 66 66 WNW 14 22 29.83 1010 10 16.09344 0 0
12:15 pm 12:15 Cloudy 45 7 32 0 61 61 WNW 24 39 29.8 1009 10 16.09344 0 0
12:35 pm 12:35 Cloudy 45 7 32 0 61 61 NW 18 30 29.8 1009 10 16.09344 0 0
12:55 pm 12:55 Cloudy 45 7 32 0 61 61 NW 15 24 29.8 1009 10 16.09344 0 0
1:15 pm 13:15 Cloudy 43 6 30 -1 61 61 NNW 21 33 29.8 1009 10 16.09344 0 0
1:35 pm 13:35 Mostly Cloudy 43 6 32 0 66 66 NW 17 28 29.8 1009 10 16.09344 0 0
1:55 pm 13:55 Cloudy 43 6 32 0 66 66 WNW 20 31 29.8 1009 10 16.09344 0 0
2:15 pm 14:15 Windy with Snow Likely 37 3 34 1 87 87 NNW 25 41 29.83 1010 5 8.04672 0 0
2:35 pm 14:35 Cloudy 37 3 34 1 87 87 NW 21 33 29.83 1010 10 16.09344 0 0
2:55 pm 14:55 Cloudy 37 3 32 0 81 81 WNW 20 31 29.85 1011 10 16.09344 0 0
3:15 pm 15:15 Cloudy 37 3 32 0 81 81 NW 28 44 29.85 1011 10 16.09344 0 0
3:35 pm 15:35 Cloudy with Light Snow 34 1 34 1 100 100 NW 15 24 29.85 1011 1 1.609344 0 0
3:55 pm 15:55 Cloudy 36 2 32 0 87 87 NW 22 35 29.85 1011 10 16.09344 0 0
4:15 pm 16:15 Cloudy 36 2 28 -2 75 75 NW 18 30 29.88 1012 10 16.09344 0 0
4:35 pm 16:35 Cloudy 36 2 28 -2 75 75 NW 23 37 29.91 1013 10 16.09344 0 0
4:55 pm 16:55 Cloudy 36 2 27 -3 70 70 WNW 21 33 29.91 1013 10 16.09344 0 0
5:15 pm 17:15 Cloudy 36 2 27 -3 70 70 WNW 16 26 29.91 1013 10 16.09344 0 0
5:35 pm 17:35 Cloudy 36 2 27 -3 70 70 NW 17 28 29.91 1013 10 16.09344 0 0
5:55 pm 17:55 Cloudy with Light Snow 34 1 28 -2 81 81 WNW 18 30 29.94 1014 10 16.09344 0 0
6:15 pm 18:15 Cloudy 34 1 27 -3 75 75 WNW 23 37 29.94 1014 10 16.09344 0 0
6:35 pm 18:35 Cloudy 34 1 27 -3 75 75 NW 18 30 29.94 1014 10 16.09344 0 0
6:55 pm 18:55 Cloudy 34 1 27 -3 75 75 WNW 17 28 29.94 1014 10 16.09344 0 0
7:15 pm 19:15 Cloudy 34 1 27 -3 75 75 WNW 21 33 29.94 1014 10 16.09344 0 0
7:35 pm 19:35 Cloudy 34 1 25 -4 70 70 WNW 20 31 29.94 1014 10 16.09344 0 0
7:55 pm 19:55 Cloudy 34 1 23 -5 65 65 WNW 18 30 29.94 1014 10 16.09344 0 0
8:15 pm 20:15 Cloudy 34 1 23 -5 65 65 WNW 16 26 29.94 1014 10 16.09344 0 0
8:35 pm 20:35 Cloudy 32 0 21 -6 64 64 WNW 20 31 29.94 1014 10 16.09344 0 0
8:55 pm 20:55 Cloudy 32 0 21 -6 64 64 WNW 20 31 29.94 1014 10 16.09344 0 0
9:15 pm 21:15 Cloudy 32 0 21 -6 64 64 NW 17 28 29.94 1014 10 16.09344 0 0
9:35 pm 21:35 Cloudy 32 0 21 -6 64 64 WNW 16 26 29.94 1014 10 16.09344 0 0
9:55 pm 21:55 Cloudy 32 0 21 -6 64 64 WNW 18 30 29.94 1014 10 16.09344 0 0
10:15 pm 22:15 Cloudy 32 0 21 -6 64 64 NW 20 31 29.94 1014 10 16.09344 0 0
10:35 pm 22:35 Cloudy 32 0 21 -6 64 64 WNW 16 26 29.94 1014 10 16.09344 0 0
10:55 pm 22:55 Cloudy 32 0 21 -6 64 64 NW 17 28 29.94 1014 10 16.09344 0 0
11:15 pm 23:15 Cloudy 32 0 21 -6 64 64 NW 20 31 29.94 1014 10 16.09344 0 0
11:35 pm 23:35 Cloudy 32 0 21 -6 64 64 NW 23 37 29.94 1014 10 16.09344 0 0
11:55 pm 23:55 Cloudy 32 0 21 -6 64 64 NW 17 28 29.94 1014 10 16.09344 0 0

Powered by AerisWeather